N2324K KMSV-KSWF

Flight info

Callsign N2324K
Flight time 0h 35m
Altitude 3500
Route FLOSI
Aircraft T34P/L-BDFGLORY/S

Departure

Time 2026-05-03 21:41
Airport Sullivan County International Airport (KMSV)

Arrival

Time 2026-05-03 22:16
Airport New York Stewart International Airport (KSWF)
Time Latitude Longitude Altitude Speed Heading
2026-05-03 21:40 41.69561 -74.78900 1366 ft 0 kts 323°
2026-05-03 21:41 41.69651 -74.78994 1368 ft 48 kts 321°
2026-05-03 21:41 41.70055 -74.79381 1452 ft 90 kts 324°
2026-05-03 21:41 41.70544 -74.79874 2021 ft 83 kts 322°
2026-05-03 21:42 41.71030 -74.80260 2587 ft 82 kts 324°
2026-05-03 21:42 41.71722 -74.80142 2616 ft 133 kts 12°
2026-05-03 21:42 41.71885 -74.80667 3111 ft 138 kts 197°
2026-05-03 21:42 41.70822 -74.80204 2383 ft 178 kts 139°
2026-05-03 21:43 41.69832 -74.79215 2098 ft 65 kts 196°
2026-05-03 21:43 41.70367 -74.79723 1690 ft 162 kts 325°
2026-05-03 21:43 41.70743 -74.80004 2556 ft 101 kts 134°
2026-05-03 21:43 41.69919 -74.79265 1617 ft 177 kts 149°
2026-05-03 21:44 41.69716 -74.78980 2159 ft 92 kts 335°
2026-05-03 21:44 41.70483 -74.79831 1573 ft 149 kts 320°
2026-05-03 21:44 41.70473 -74.79849 2201 ft 124 kts 160°
2026-05-03 21:44 41.69642 -74.78978 2091 ft 9 kts 320°
2026-05-03 21:45 41.70197 -74.79535 1678 ft 132 kts 318°
2026-05-03 21:45 41.70470 -74.79749 2029 ft 127 kts 139°
2026-05-03 21:45 41.69558 -74.78953 2148 ft 48 kts 292°
2026-05-03 21:45 41.70236 -74.79569 1605 ft 158 kts 328°
2026-05-03 21:46 41.70561 -74.79805 2459 ft 133 kts 138°
2026-05-03 21:46 41.69616 -74.78952 1672 ft 178 kts 144°
2026-05-03 21:46 41.69785 -74.79131 1907 ft 144 kts 328°
2026-05-03 21:46 41.70513 -74.79859 2286 ft 80 kts 146°
2026-05-03 21:47 41.69633 -74.78911 1930 ft 192 kts 146°
2026-05-03 21:47 41.68885 -74.77681 2367 ft 170 kts 176°
2026-05-03 21:47 41.68505 -74.78509 2537 ft 134 kts 319°
2026-05-03 21:47 41.69505 -74.78796 1985 ft 144 kts 327°
2026-05-03 21:48 41.70051 -74.79532 2133 ft 138 kts 263°
2026-05-03 21:48 41.70120 -74.80355 2445 ft 92 kts 357°
2026-05-03 21:48 41.70306 -74.79513 1744 ft 126 kts 148°
2026-05-03 21:48 41.69564 -74.78940 1669 ft 131 kts 144°
2026-05-03 21:49 41.68808 -74.78192 1898 ft 153 kts 148°
2026-05-03 21:49 41.68410 -74.77690 2335 ft 100 kts 327°
2026-05-03 21:49 41.69103 -74.78268 1962 ft 130 kts 291°
2026-05-03 21:49 41.69792 -74.79042 1634 ft 134 kts 317°
2026-05-03 21:50 41.70574 -74.79783 1591 ft 148 kts 335°
2026-05-03 21:50 41.71383 -74.80163 2493 ft 37 kts 66°
2026-05-03 21:50 41.70582 -74.79790 2222 ft 181 kts 169°
2026-05-03 21:50 41.69490 -74.78904 2174 ft 60 kts 201°
2026-05-03 21:51 41.69875 -74.79225 1864 ft 123 kts 327°
2026-05-03 21:51 41.70599 -74.79944 1594 ft 137 kts 320°
2026-05-03 21:51 41.70507 -74.79758 2334 ft 118 kts 168°
2026-05-03 21:51 41.69481 -74.78796 1646 ft 199 kts 144°
2026-05-03 21:52 41.69394 -74.78838 2176 ft 129 kts 323°
2026-05-03 21:52 41.70381 -74.79614 1684 ft 170 kts 315°
2026-05-03 21:52 41.70702 -74.79931 3294 ft 108 kts 133°
2026-05-03 21:52 41.69871 -74.79033 2108 ft 191 kts 157°
2026-05-03 21:53 41.68818 -74.78312 2715 ft 113 kts 163°
2026-05-03 21:53 41.68017 -74.77869 2945 ft 138 kts 166°
2026-05-03 21:53 41.67330 -74.76960 3248 ft 147 kts 105°
2026-05-03 21:53 41.67012 -74.75645 3452 ft 155 kts 108°
2026-05-03 21:54 41.66655 -74.74245 3552 ft 159 kts 107°
2026-05-03 21:54 41.66294 -74.72795 3540 ft 172 kts 107°
2026-05-03 21:54 41.65909 -74.71234 3535 ft 180 kts 106°
2026-05-03 21:54 41.65441 -74.69665 3538 ft 183 kts 114°
2026-05-03 21:55 41.64902 -74.68121 3534 ft 183 kts 114°
2026-05-03 21:55 41.64409 -74.66506 3538 ft 190 kts 111°
2026-05-03 21:55 41.63926 -74.64833 3541 ft 195 kts 111°
2026-05-03 21:55 41.63444 -74.63130 3544 ft 197 kts 110°
2026-05-03 21:56 41.62956 -74.61398 3544 ft 199 kts 110°
2026-05-03 21:56 41.62455 -74.59647 3542 ft 204 kts 110°
2026-05-03 21:56 41.61947 -74.57858 3543 ft 207 kts 111°
2026-05-03 21:56 41.61441 -74.56057 3548 ft 207 kts 110°
2026-05-03 21:57 41.60935 -74.54252 3547 ft 208 kts 110°
2026-05-03 21:57 41.60421 -74.52445 3557 ft 208 kts 110°
2026-05-03 21:57 41.59911 -74.50666 3559 ft 207 kts 110°
2026-05-03 21:57 41.59395 -74.48867 3557 ft 207 kts 110°
2026-05-03 21:58 41.58873 -74.47070 3556 ft 207 kts 110°
2026-05-03 21:58 41.58351 -74.45274 3567 ft 208 kts 110°
2026-05-03 21:58 41.57834 -74.43466 3557 ft 208 kts 110°
2026-05-03 21:58 41.57322 -74.41666 3558 ft 207 kts 110°
2026-05-03 21:59 41.56813 -74.39867 3558 ft 207 kts 110°
2026-05-03 21:59 41.56309 -74.38074 3556 ft 206 kts 110°
2026-05-03 21:59 41.55812 -74.36291 3557 ft 204 kts 110°
2026-05-03 21:59 41.55311 -74.34514 3556 ft 204 kts 110°
2026-05-03 22:00 41.54800 -74.32745 3552 ft 204 kts 110°
2026-05-03 22:00 41.54180 -74.31053 3552 ft 203 kts 122°
2026-05-03 22:00 41.53574 -74.29352 3545 ft 202 kts 105°
2026-05-03 22:00 41.53372 -74.28145 3546 ft 201 kts 97°
2026-05-03 22:01 41.53083 -74.26320 3540 ft 201 kts 111°
2026-05-03 22:01 41.52223 -74.24871 3535 ft 199 kts 145°
2026-05-03 22:01 41.51066 -74.23887 3548 ft 197 kts 153°
2026-05-03 22:01 41.49887 -74.22936 3548 ft 200 kts 152°
2026-05-03 22:02 41.48703 -74.21960 3551 ft 200 kts 152°
2026-05-03 22:02 41.47520 -74.20973 3543 ft 201 kts 152°
2026-05-03 22:02 41.46331 -74.19988 3544 ft 201 kts 152°
2026-05-03 22:02 41.45144 -74.19005 3543 ft 200 kts 151°
2026-05-03 22:03 41.43979 -74.18038 3478 ft 188 kts 152°
2026-05-03 22:03 41.42917 -74.17153 3341 ft 173 kts 153°
2026-05-03 22:03 41.41912 -74.16324 3185 ft 170 kts 154°
2026-05-03 22:03 41.40910 -74.15498 3028 ft 169 kts 153°
2026-05-03 22:04 41.39916 -74.14675 2901 ft 166 kts 152°
2026-05-03 22:04 41.38993 -74.13910 2960 ft 151 kts 153°
2026-05-03 22:04 41.38111 -74.13182 3022 ft 151 kts 154°
2026-05-03 22:04 41.37231 -74.12449 2996 ft 144 kts 157°
2026-05-03 22:05 41.36430 -74.11798 3010 ft 136 kts 155°
2026-05-03 22:05 41.35609 -74.11118 3016 ft 147 kts 155°
2026-05-03 22:05 41.34655 -74.10342 3017 ft 170 kts 153°
2026-05-03 22:05 41.33605 -74.09473 3032 ft 184 kts 152°
2026-05-03 22:06 41.32502 -74.08576 3023 ft 179 kts 154°
2026-05-03 22:06 41.31508 -74.07731 3023 ft 161 kts 152°
2026-05-03 22:06 41.30582 -74.06961 3011 ft 155 kts 153°
2026-05-03 22:06 41.29687 -74.06229 3011 ft 150 kts 155°
2026-05-03 22:07 41.28815 -74.05483 3002 ft 149 kts 144°
2026-05-03 22:07 41.28328 -74.04268 3003 ft 152 kts 92°
2026-05-03 22:07 41.28535 -74.02978 3000 ft 137 kts 51°
2026-05-03 22:07 41.29019 -74.01902 3027 ft 137 kts 51°
2026-05-03 22:08 41.29516 -74.00795 3003 ft 137 kts 51°
2026-05-03 22:08 41.29991 -73.99729 3016 ft 132 kts 48°
2026-05-03 22:08 41.30458 -73.98677 3004 ft 132 kts 47°
2026-05-03 22:08 41.30929 -73.97624 3014 ft 134 kts 50°
2026-05-03 22:09 41.31401 -73.96560 3000 ft 130 kts 50°
2026-05-03 22:09 41.32004 -73.95814 3013 ft 112 kts
2026-05-03 22:09 41.32748 -73.95772 3008 ft 106 kts 336°
2026-05-03 22:10 41.34024 -73.96714 3018 ft 107 kts 324°
2026-05-03 22:10 41.34655 -73.97206 3010 ft 101 kts 323°
2026-05-03 22:10 41.35241 -73.97658 3015 ft 95 kts 323°
2026-05-03 22:10 41.35803 -73.98104 3014 ft 93 kts 324°
2026-05-03 22:11 41.36359 -73.98534 3001 ft 89 kts 326°
2026-05-03 22:11 41.36852 -73.98929 3016 ft 85 kts 324°
2026-05-03 22:11 41.37386 -73.99348 3010 ft 95 kts 324°
2026-05-03 22:11 41.38006 -73.99837 3003 ft 111 kts 325°
2026-05-03 22:12 41.38698 -74.00380 2951 ft 119 kts 323°
2026-05-03 22:12 41.39454 -74.00972 2805 ft 132 kts 324°
2026-05-03 22:12 41.40216 -74.01571 2634 ft 124 kts 326°
2026-05-03 22:12 41.40951 -74.02141 2456 ft 121 kts 325°
2026-05-03 22:13 41.41673 -74.02708 2292 ft 120 kts 325°
2026-05-03 22:13 41.42389 -74.03271 2128 ft 118 kts 325°
2026-05-03 22:13 41.43091 -74.03821 1964 ft 115 kts 325°
2026-05-03 22:13 41.43773 -74.04358 1812 ft 113 kts 325°
2026-05-03 22:14 41.44442 -74.04882 1660 ft 108 kts 324°
2026-05-03 22:14 41.45043 -74.05350 1517 ft 97 kts 322°
2026-05-03 22:14 41.45617 -74.05812 1371 ft 98 kts 326°
2026-05-03 22:14 41.46213 -74.06201 1341 ft 92 kts 330°
2026-05-03 22:15 41.46773 -74.06606 1268 ft 89 kts 324°
2026-05-03 22:15 41.47341 -74.06969 1160 ft 92 kts 327°
2026-05-03 22:15 41.47915 -74.07370 1040 ft 93 kts 322°
2026-05-03 22:15 41.48416 -74.07899 967 ft 92 kts 317°
2026-05-03 22:16 41.48916 -74.08373 919 ft 87 kts 326°
2026-05-03 22:16 41.49455 -74.08816 682 ft 90 kts 328°
2026-05-03 22:16 41.49937 -74.09205 492 ft 73 kts 327°
2026-05-03 22:16 41.50295 -74.09467 465 ft 48 kts 327°
2026-05-03 22:17 41.50541 -74.09679 467 ft 57 kts 325°
2026-05-03 22:17 41.50961 -74.09989 681 ft 77 kts 327°
2026-05-03 22:17 41.51417 -74.10393 1029 ft 76 kts 319°
2026-05-03 22:17 41.51734 -74.10899 1422 ft 72 kts 271°
2026-05-03 22:18 41.51450 -74.11625 1517 ft 100 kts 262°
2026-05-03 22:18 41.51267 -74.12418 1593 ft 90 kts 237°
2026-05-03 22:18 41.50625 -74.12446 1563 ft 114 kts 159°
2026-05-03 22:18 41.49911 -74.11956 1560 ft 112 kts 155°
2026-05-03 22:19 41.49240 -74.11418 1508 ft 109 kts 164°
2026-05-03 22:19 41.48564 -74.10970 1449 ft 117 kts 152°
2026-05-03 22:19 41.47986 -74.10265 1487 ft 110 kts 117°
2026-05-03 22:19 41.48107 -74.09379 1359 ft 101 kts 46°
2026-05-03 22:20 41.48435 -74.08598 1295 ft 95 kts 49°
2026-05-03 22:20 41.48938 -74.08348 1032 ft 77 kts 327°
2026-05-03 22:20 41.49373 -74.08755 733 ft 66 kts 326°
2026-05-03 22:20 41.49776 -74.09084 490 ft 63 kts 328°
2026-05-03 22:21 41.50067 -74.09324 469 ft 38 kts 338°
2026-05-03 22:21 41.50280 -74.09489 465 ft 54 kts 332°
2026-05-03 22:21 41.50710 -74.09698 751 ft 72 kts 326°
2026-05-03 22:21 41.51120 -74.10023 1305 ft 60 kts 319°
2026-05-03 22:22 41.51070 -74.10591 1431 ft 93 kts 244°
2026-05-03 22:22 41.50570 -74.11157 1604 ft 103 kts 201°
2026-05-03 22:22 41.49885 -74.10628 1654 ft 130 kts 139°
2026-05-03 22:22 41.49218 -74.09842 1766 ft 119 kts 149°
2026-05-03 22:23 41.48540 -74.09247 1723 ft 116 kts 161°
2026-05-03 22:23 41.47818 -74.08741 1682 ft 120 kts 153°
2026-05-03 22:23 41.47538 -74.07756 1489 ft 117 kts 58°
2026-05-03 22:23 41.47971 -74.07077 1389 ft 80 kts 344°
2026-05-03 22:24 41.48318 -74.07523 1214 ft 76 kts 305°
2026-05-03 22:24 41.48643 -74.08101 947 ft 84 kts 316°
2026-05-03 22:24 41.49131 -74.08543 747 ft 84 kts 321°
2026-05-03 22:24 41.49564 -74.08899 656 ft 72 kts 322°
2026-05-03 22:25 41.49972 -74.09251 490 ft 59 kts 333°
2026-05-03 22:25 41.50237 -74.09467 466 ft 34 kts 337°
2026-05-03 22:25 41.50307 -74.09506 464 ft 3 kts 354°
2026-05-03 22:25 41.50313 -74.09506 464 ft 2 kts 354°
2026-05-03 22:26 41.50375 -74.09555 465 ft 20 kts 316°
2026-05-03 22:26 41.50428 -74.09639 467 ft 6 kts 290°
2026-05-03 22:26 41.50429 -74.09671 468 ft 3 kts 261°
2026-05-03 22:26 41.50419 -74.09739 469 ft 7 kts 241°
2026-05-03 22:27 41.50395 -74.09770 470 ft 5 kts 204°
2026-05-03 22:27 41.50311 -74.09832 470 ft 22 kts 204°
2026-05-03 22:27 41.50185 -74.09849 467 ft 15 kts 197°
2026-05-03 22:27 41.50150 -74.09862 467 ft 9 kts 181°
2026-05-03 22:28 41.50067 -74.09908 466 ft 16 kts 214°
2026-05-03 22:28 41.49985 -74.09987 464 ft 10 kts 290°
2026-05-03 22:28 41.49985 -74.10016 465 ft 1 kts 278°
2026-05-03 22:28 41.49977 -74.10027 465 ft 3 kts 100°
2026-05-03 22:29 41.49982 -74.10017 465 ft 3 kts 51°
2026-05-03 22:29 41.49982 -74.10016 465 ft 0 kts 51°
2026-05-03 22:32 41.49983 -74.10016 465 ft 0 kts 51°